owner,sensor,date,latitude,longitude,vertical_datum,direction_of_sea_water_velocity,sea_water_speed,upward_sea_water_velocity,qcFlag 
TABS,ioos:station:wmo:42050:1,2009-09-01T00:00:00Z,28.8425,-94.2433,2.0,252.3259509,7.378245049,-99999.0,'11133222,11111222,99999999' 
TABS,ioos:station:wmo:42050:1,2009-09-01T00:30:00Z,28.8425,-94.2433,2.0,251.1172442,7.694056147,-99999.0,'11133222,11111222,99999999' 
TABS,ioos:station:wmo:42050:1,2009-09-01T01:00:00Z,28.8425,-94.2433,2.0,267.6912369,6.455238183,-99999.0,'11133222,11111222,99999999' 
TABS,ioos:station:wmo:42050:1,2009-09-01T01:30:00Z,28.8425,-94.2433,2.0,273.3022789,6.771240654,-99999.0,'11133222,11111222,99999999' 
TABS,ioos:station:wmo:42050:1,2009-09-01T02:00:00Z,28.8425,-94.2433,2.0,288.5580152,7.383935265,-99999.0,'11133222,11111222,99999999' 
TABS,ioos:station:wmo:42050:1,2009-09-01T02:30:00Z,28.8425,-94.2433,2.0,309.5245293,7.039552543,-99999.0,'11133222,11111222,99999999' 
TABS,ioos:station:wmo:42050:1,2009-09-01T03:00:00Z,28.8425,-94.2433,2.0,328.5114827,9.170414385,-99999.0,'11133222,11111222,99999999' 
TABS,ioos:station:wmo:42050:1,2009-09-01T03:30:00Z,28.8425,-94.2433,2.0,343.1942054,10.79088968,-99999.0,'11111222,11111222,99999999' 
TABS,ioos:station:wmo:42050:1,2009-09-01T04:00:00Z,28.8425,-94.2433,2.0,347.3052325,8.600244183,-99999.0,'11133222,11111222,99999999' 
TABS,ioos:station:wmo:42050:1,2009-09-01T04:30:00Z,28.8425,-94.2433,2.0,343.5804662,9.622437321,-99999.0,'11133222,11111222,99999999' 
TABS,ioos:station:wmo:42050:1,2009-09-01T08:30:00Z,28.8425,-94.2433,2.0,25.10659779,1.932588937,-99999.0,'11133222,11111222,99999999' 
TABS,ioos:station:wmo:42050:1,2009-09-01T09:00:00Z,28.8425,-94.2433,2.0,78.54613537,1.561089363,-99999.0,'11133222,11111222,99999999' 
TABS,ioos:station:wmo:42050:1,2009-09-01T09:30:00Z,28.8425,-94.2433,2.0,92.02373911,2.831766233,-99999.0,'11133222,11111222,99999999' 
TABS,ioos:station:wmo:42050:1,2009-09-01T10:00:00Z,28.8425,-94.2433,2.0,75.06861774,1.241933976,-99999.0,'11133222,11111222,99999999' 
TABS,ioos:station:wmo:42050:1,2009-09-01T10:30:00Z,28.8425,-94.2433,2.0,169.3931161,2.716413076,-99999.0,'11133222,11111222,99999999' 
TABS,ioos:station:wmo:42050:1,2009-09-01T11:00:00Z,28.8425,-94.2433,2.0,105.1978065,2.632052431,-99999.0,'11133222,11111222,99999999' 
TABS,ioos:station:wmo:42050:1,2009-09-01T11:30:00Z,28.8425,-94.2433,2.0,148.9604843,3.898166236,-99999.0,'11133222,11111222,99999999' 
TABS,ioos:station:wmo:42050:1,2009-09-01T12:00:00Z,28.8425,-94.2433,2.0,122.1956586,0.638122245,-99999.0,'11133222,11111222,99999999' 
TABS,ioos:station:wmo:42050:1,2009-09-01T12:30:00Z,28.8425,-94.2433,2.0,192.1295544,3.426499672,-99999.0,'11133222,11111222,99999999' 
TABS,ioos:station:wmo:42050:1,2009-09-01T13:00:00Z,28.8425,-94.2433,2.0,180.3207702,3.570056022,-99999.0,'11133222,11111222,99999999' 
TABS,ioos:station:wmo:42050:1,2009-09-01T13:30:00Z,28.8425,-94.2433,2.0,85.51540448,1.534698667,-99999.0,'11133222,11111222,99999999' 
TABS,ioos:station:wmo:42050:1,2009-09-01T14:00:00Z,28.8425,-94.2433,2.0,64.30087417,1.775640729,-99999.0,'11133222,11111222,99999999' 
TABS,ioos:station:wmo:42050:1,2009-09-01T14:30:00Z,28.8425,-94.2433,2.0,355.2145262,2.157521726,-99999.0,'11133222,11111222,99999999' 
TABS,ioos:station:wmo:42050:1,2009-09-01T15:00:00Z,28.8425,-94.2433,2.0,70.92295329,2.539468448,-99999.0,'11133222,11111222,99999999' 
TABS,ioos:station:wmo:42050:1,2009-09-01T15:30:00Z,28.8425,-94.2433,2.0,100.3048224,2.347871376,-99999.0,'11133222,11111222,99999999' 
TABS,ioos:station:wmo:42050:1,2009-09-01T16:00:00Z,28.8425,-94.2433,2.0,56.5650347,1.869358179,-99999.0,'11133222,11111222,99999999' 
TABS,ioos:station:wmo:42050:1,2009-09-01T16:30:00Z,28.8425,-94.2433,2.0,348.738011,2.355355599,-99999.0,'11133222,11111222,99999999' 
TABS,ioos:station:wmo:42050:1,2009-09-01T17:00:00Z,28.8425,-94.2433,2.0,42.04933302,2.747216773,-99999.0,'11133222,11111222,99999999' 
TABS,ioos:station:wmo:42050:1,2009-09-01T17:30:00Z,28.8425,-94.2433,2.0,8.009332027,2.009601951,-99999.0,'11133222,11111222,99999999' 
TABS,ioos:station:wmo:42050:1,2009-09-01T18:00:00Z,28.8425,-94.2433,2.0,7.202688998,3.668950804,-99999.0,'11133222,11111222,99999999' 
TABS,ioos:station:wmo:42050:1,2009-09-01T18:30:00Z,28.8425,-94.2433,2.0,342.0723326,4.288216412,-99999.0,'11133222,11111222,99999999' 
TABS,ioos:station:wmo:42050:1,2009-09-01T19:00:00Z,28.8425,-94.2433,2.0,321.6093791,3.993407067,-99999.0,'11133222,11111222,99999999' 
TABS,ioos:station:wmo:42050:1,2009-09-01T19:30:00Z,28.8425,-94.2433,2.0,338.1126283,7.403681517,-99999.0,'11133222,11111222,99999999' 
TABS,ioos:station:wmo:42050:1,2009-09-01T20:00:00Z,28.8425,-94.2433,2.0,342.7274162,4.20985748,-99999.0,'11133222,11111222,99999999' 
TABS,ioos:station:wmo:42050:1,2009-09-01T20:30:00Z,28.8425,-94.2433,2.0,300.7660224,3.968500976,-99999.0,'11133222,11111222,99999999' 
TABS,ioos:station:wmo:42050:1,2009-09-01T21:00:00Z,28.8425,-94.2433,2.0,303.5452658,4.379372101,-99999.0,'11133222,11111222,99999999' 
TABS,ioos:station:wmo:42050:1,2009-09-01T21:30:00Z,28.8425,-94.2433,2.0,295.4572502,7.630891167,-99999.0,'11133222,11111222,99999999' 
TABS,ioos:station:wmo:42050:1,2009-09-01T22:00:00Z,28.8425,-94.2433,2.0,286.2338923,6.009600652,-99999.0,'11133222,11111222,99999999' 
TABS,ioos:station:wmo:42050:1,2009-09-01T22:30:00Z,28.8425,-94.2433,2.0,289.05065,5.300283011,-99999.0,'11133222,11111222,99999999' 
TABS,ioos:station:wmo:42050:1,2009-09-01T23:00:00Z,28.8425,-94.2433,2.0,295.9030621,3.868656097,-99999.0,'11133222,11111222,99999999' 
TABS,ioos:station:wmo:42050:1,2009-09-01T23:30:00Z,28.8425,-94.2433,2.0,302.9154434,2.870836115,-99999.0,'11133222,11111222,99999999' 
TABS,ioos:station:wmo:42050:1,2009-09-02T00:00:00Z,28.8425,-94.2433,2.0,332.2894612,2.236515146,-99999.0,'11133222,11111222,99999999' 
TABS,ioos:station:wmo:42050:1,2009-09-02T00:30:00Z,28.8425,-94.2433,2.0,7.820218169,2.351871595,-99999.0,'11133222,11111222,99999999' 
TABS,ioos:station:wmo:42050:1,2009-09-02T01:00:00Z,28.8425,-94.2433,2.0,23.01652584,2.890069203,-99999.0,'11133222,11111222,99999999' 
TABS,ioos:station:wmo:42050:1,2009-09-02T01:30:00Z,28.8425,-94.2433,2.0,79.22638701,5.028637987,-99999.0,'11133222,11111222,99999999' 
TABS,ioos:station:wmo:42050:1,2009-09-02T02:00:00Z,28.8425,-94.2433,2.0,50.62683779,2.884753022,-99999.0,'11133222,11111222,99999999' 
TABS,ioos:station:wmo:42050:1,2009-09-02T02:30:00Z,28.8425,-94.2433,2.0,65.45762251,7.222527259,-99999.0,'11133222,11111222,99999999' 
TABS,ioos:station:wmo:42050:1,2009-09-02T03:00:00Z,28.8425,-94.2433,2.0,79.83224829,7.477432715,-99999.0,'11133222,11111222,99999999' 
TABS,ioos:station:wmo:42050:1,2009-09-02T03:30:00Z,28.8425,-94.2433,2.0,75.82121884,7.797544485,-99999.0,'11133222,11111222,99999999' 
TABS,ioos:station:wmo:42050:1,2009-09-02T04:00:00Z,28.8425,-94.2433,2.0,67.1246168,9.312400335,-99999.0,'11133222,11111222,99999999' 
TABS,ioos:station:wmo:42050:1,2009-09-02T04:30:00Z,28.8425,-94.2433,2.0,15.91185584,9.337772754,-99999.0,'11133222,11111222,99999999' 
TABS,ioos:station:wmo:42050:1,2009-09-02T05:00:00Z,28.8425,-94.2433,2.0,14.87113304,9.156691542,-99999.0,'11133222,11111222,99999999' 
TABS,ioos:station:wmo:42050:1,2009-09-02T05:30:00Z,28.8425,-94.2433,2.0,31.51420937,6.428063472,-99999.0,'11133222,11111222,99999999' 
TABS,ioos:station:wmo:42050:1,2009-09-02T06:00:00Z,28.8425,-94.2433,2.0,87.33859018,8.399059471,-99999.0,'11133222,11111222,99999999' 
TABS,ioos:station:wmo:42050:1,2009-09-02T06:30:00Z,28.8425,-94.2433,2.0,72.84534434,8.916686604,-99999.0,'11133222,11111222,99999999' 
TABS,ioos:station:wmo:42050:1,2009-09-02T07:00:00Z,28.8425,-94.2433,2.0,82.90810961,8.585685762,-99999.0,'11133222,11111222,99999999' 
TABS,ioos:station:wmo:42050:1,2009-09-02T07:30:00Z,28.8425,-94.2433,2.0,76.36265861,4.87750961,-99999.0,'11133222,11111222,99999999' 
TABS,ioos:station:wmo:42050:1,2009-09-02T08:00:00Z,28.8425,-94.2433,2.0,69.04066855,6.31803767,-99999.0,'11133222,11111222,99999999' 
TABS,ioos:station:wmo:42050:1,2009-09-02T08:30:00Z,28.8425,-94.2433,2.0,106.5415243,3.82844616,-99999.0,'11133222,11111222,99999999' 
TABS,ioos:station:wmo:42050:1,2009-09-02T09:00:00Z,28.8425,-94.2433,2.0,67.61991728,3.860803025,-99999.0,'11133222,11111222,99999999' 
TABS,ioos:station:wmo:42050:1,2009-09-02T09:30:00Z,28.8425,-94.2433,2.0,122.5603618,0.98478424,-99999.0,'11133222,11111222,99999999' 
TABS,ioos:station:wmo:42050:1,2009-09-02T10:00:00Z,28.8425,-94.2433,2.0,204.2090077,1.414390328,-99999.0,'11133222,11111222,99999999' 
TABS,ioos:station:wmo:42050:1,2009-09-02T10:30:00Z,28.8425,-94.2433,2.0,265.8687325,1.804688339,-99999.0,'11133222,11111222,99999999' 
TABS,ioos:station:wmo:42050:1,2009-09-02T11:00:00Z,28.8425,-94.2433,2.0,230.7102641,4.405927825,-99999.0,'11133222,11111222,99999999' 
TABS,ioos:station:wmo:42050:1,2009-09-02T11:30:00Z,28.8425,-94.2433,2.0,294.5419815,2.91317696,-99999.0,'11133222,11111222,99999999' 
TABS,ioos:station:wmo:42050:1,2009-09-02T12:00:00Z,28.8425,-94.2433,2.0,218.0314439,2.564527247,-99999.0,'11133222,11111222,99999999' 
TABS,ioos:station:wmo:42050:1,2009-09-02T12:30:00Z,28.8425,-94.2433,2.0,355.5156149,0.511566222,-99999.0,'11133222,11111222,99999999' 
TABS,ioos:station:wmo:42050:1,2009-09-02T13:00:00Z,28.8425,-94.2433,2.0,15.04297603,1.656773974,-99999.0,'11133222,11111222,99999999' 
TABS,ioos:station:wmo:42050:1,2009-09-02T13:30:00Z,28.8425,-94.2433,2.0,83.51190006,2.566437219,-99999.0,'11133222,11111222,99999999' 
TABS,ioos:station:wmo:42050:1,2009-09-02T14:00:00Z,28.8425,-94.2433,2.0,70.7960714,0.942443632,-99999.0,'11133222,11111222,99999999' 
TABS,ioos:station:wmo:42050:1,2009-09-02T14:30:00Z,28.8425,-94.2433,2.0,69.15296753,3.456269665,-99999.0,'11133222,11111222,99999999' 
TABS,ioos:station:wmo:42050:1,2009-09-02T15:00:00Z,28.8425,-94.2433,2.0,102.1714297,2.608639492,-99999.0,'11133222,11111222,99999999' 
TABS,ioos:station:wmo:42050:1,2009-09-02T15:30:00Z,28.8425,-94.2433,2.0,101.3405946,3.661488768,-99999.0,'11133222,11111222,99999999' 
TABS,ioos:station:wmo:42050:1,2009-09-02T16:00:00Z,28.8425,-94.2433,2.0,63.91589835,3.72989276,-99999.0,'11133222,11111222,99999999' 
TABS,ioos:station:wmo:42050:1,2009-09-02T16:30:00Z,28.8425,-94.2433,2.0,54.91082685,1.930932417,-99999.0,'11133222,11111222,99999999' 
TABS,ioos:station:wmo:42050:1,2009-09-02T17:00:00Z,28.8425,-94.2433,2.0,59.60134337,3.478160433,-99999.0,'11133222,11111222,99999999' 
TABS,ioos:station:wmo:42050:1,2009-09-02T17:30:00Z,28.8425,-94.2433,2.0,55.72204922,2.432488438,-99999.0,'11133222,11111222,99999999' 
TABS,ioos:station:wmo:42050:1,2009-09-02T18:00:00Z,28.8425,-94.2433,2.0,111.3705723,0.246981781,-99999.0,'11133222,11111222,99999999' 
TABS,ioos:station:wmo:42050:1,2009-09-02T18:30:00Z,28.8425,-94.2433,2.0,21.74756743,1.970228413,-99999.0,'11133222,11111222,99999999' 
TABS,ioos:station:wmo:42050:1,2009-09-02T19:00:00Z,28.8425,-94.2433,2.0,329.3265235,2.371855813,-99999.0,'11133222,11111222,99999999' 
TABS,ioos:station:wmo:42050:1,2009-09-02T19:30:00Z,28.8425,-94.2433,2.0,344.9047249,1.574325252,-99999.0,'11133222,11111222,99999999' 
TABS,ioos:station:wmo:42050:1,2009-09-02T20:00:00Z,28.8425,-94.2433,2.0,301.9054219,3.027358585,-99999.0,'11133222,11111222,99999999' 
TABS,ioos:station:wmo:42050:1,2009-09-02T20:30:00Z,28.8425,-94.2433,2.0,304.7351992,4.563167759,-99999.0,'11133222,11111222,99999999' 
TABS,ioos:station:wmo:42050:1,2009-09-02T21:00:00Z,28.8425,-94.2433,2.0,323.0002805,5.284013626,-99999.0,'11133222,11111222,99999999' 
TABS,ioos:station:wmo:42050:1,2009-09-02T21:30:00Z,28.8425,-94.2433,2.0,295.8213525,6.198903129,-99999.0,'11133222,11111222,99999999' 
TABS,ioos:station:wmo:42050:1,2009-09-02T23:30:00Z,28.8425,-94.2433,2.0,327.9949021,4.622650755,-99999.0,'11133222,11111222,99999999' 
TABS,ioos:station:wmo:42050:1,2009-09-03T00:00:00Z,28.8425,-94.2433,2.0,333.237651,6.484635688,-99999.0,'11133222,11111222,99999999' 
TABS,ioos:station:wmo:42050:1,2009-09-03T00:30:00Z,28.8425,-94.2433,2.0,344.3123891,5.806289693,-99999.0,'11133222,11111222,99999999' 
TABS,ioos:station:wmo:42050:1,2009-09-03T01:00:00Z,28.8425,-94.2433,2.0,351.0954103,4.392948896,-99999.0,'11133222,11111222,99999999' 
TABS,ioos:station:wmo:42050:1,2009-09-03T01:30:00Z,28.8425,-94.2433,2.0,347.3574488,8.178294443,-99999.0,'11133222,11111222,99999999' 
TABS,ioos:station:wmo:42050:1,2009-09-03T02:00:00Z,28.8425,-94.2433,2.0,329.2032151,6.484388946,-99999.0,'11133222,11111222,99999999' 
TABS,ioos:station:wmo:42050:1,2009-09-03T02:30:00Z,28.8425,-94.2433,2.0,333.6058706,6.006105227,-99999.0,'11133222,11111222,99999999' 
TABS,ioos:station:wmo:42050:1,2009-09-03T03:00:00Z,28.8425,-94.2433,2.0,355.8216513,6.587510911,-99999.0,'11133222,11111222,99999999' 
TABS,ioos:station:wmo:42050:1,2009-09-03T03:30:00Z,28.8425,-94.2433,2.0,3.441295494,7.663817587,-99999.0,'11133222,11111222,99999999' 
TABS,ioos:station:wmo:42050:1,2009-09-03T04:00:00Z,28.8425,-94.2433,2.0,16.73376555,7.988272654,-99999.0,'11133222,11111222,99999999' 
TABS,ioos:station:wmo:42050:1,2009-09-03T04:30:00Z,28.8425,-94.2433,2.0,12.93232575,8.93667164,-99999.0,'11133222,11111222,99999999' 
TABS,ioos:station:wmo:42050:1,2009-09-03T05:00:00Z,28.8425,-94.2433,2.0,16.88475782,8.882927445,-99999.0,'11133222,11111222,99999999' 
TABS,ioos:station:wmo:42050:1,2009-09-03T05:30:00Z,28.8425,-94.2433,2.0,20.26673115,9.498010318,-99999.0,'11133222,11111222,99999999' 
TABS,ioos:station:wmo:42050:1,2009-09-03T06:00:00Z,28.8425,-94.2433,2.0,317.9197374,9.579587674,-99999.0,'11133222,11111222,99999999' 
TABS,ioos:station:wmo:42050:1,2009-09-03T06:30:00Z,28.8425,-94.2433,2.0,359.3692267,9.080550644,-99999.0,'11133222,11144222,99999999' 
TABS,ioos:station:wmo:42050:1,2009-09-03T07:00:00Z,28.8425,-94.2433,2.0,358.1744032,8.474302331,-99999.0,'11133222,11111222,99999999' 
TABS,ioos:station:wmo:42050:1,2009-09-03T07:30:00Z,28.8425,-94.2433,2.0,84.22288444,6.854815825,-99999.0,'11133222,11111222,99999999' 
TABS,ioos:station:wmo:42050:1,2009-09-03T08:00:00Z,28.8425,-94.2433,2.0,91.03308819,6.100991723,-99999.0,'11133222,11111222,99999999' 
TABS,ioos:station:wmo:42050:1,2009-09-03T08:30:00Z,28.8425,-94.2433,2.0,69.76989887,5.350037383,-99999.0,'11133222,11111222,99999999' 
TABS,ioos:station:wmo:42050:1,2009-09-03T09:00:00Z,28.8425,-94.2433,2.0,127.9565903,3.690663897,-99999.0,'11133222,11111222,99999999' 
TABS,ioos:station:wmo:42050:1,2009-09-03T09:30:00Z,28.8425,-94.2433,2.0,8.259629124,0.626498204,-99999.0,'11133222,11111222,99999999' 
TABS,ioos:station:wmo:42050:1,2009-09-03T10:00:00Z,28.8425,-94.2433,2.0,171.0271839,1.154123044,-99999.0,'11133222,11111222,99999999' 
TABS,ioos:station:wmo:42050:1,2009-09-03T10:30:00Z,28.8425,-94.2433,2.0,154.2125217,0.988433103,-99999.0,'11133222,11111222,99999999' 
TABS,ioos:station:wmo:42050:1,2009-09-03T11:00:00Z,28.8425,-94.2433,2.0,224.4379803,2.885134312,-99999.0,'11133222,11111222,99999999' 
TABS,ioos:station:wmo:42050:1,2009-09-03T11:30:00Z,28.8425,-94.2433,2.0,164.1806326,1.870855419,-99999.0,'11133222,11111222,99999999' 
TABS,ioos:station:wmo:42050:1,2009-09-03T12:00:00Z,28.8425,-94.2433,2.0,94.88838952,1.525549081,-99999.0,'11133222,11111222,99999999' 
TABS,ioos:station:wmo:42050:1,2009-09-03T12:30:00Z,28.8425,-94.2433,2.0,166.8272669,1.448102206,-99999.0,'11133222,11111222,99999999' 
TABS,ioos:station:wmo:42050:1,2009-09-03T13:00:00Z,28.8425,-94.2433,2.0,130.7170263,1.609627286,-99999.0,'11133222,11111222,99999999' 
TABS,ioos:station:wmo:42050:1,2009-09-03T13:30:00Z,28.8425,-94.2433,2.0,201.2273911,2.596150997,-99999.0,'11133222,11111222,99999999' 
TABS,ioos:station:wmo:42050:1,2009-09-03T14:00:00Z,28.8425,-94.2433,2.0,353.774396,1.106526095,-99999.0,'11133222,11111222,99999999' 
TABS,ioos:station:wmo:42050:1,2009-09-03T14:30:00Z,28.8425,-94.2433,2.0,140.7742072,1.265069168,-99999.0,'11133222,11111222,99999999' 
TABS,ioos:station:wmo:42050:1,2009-09-03T15:00:00Z,28.8425,-94.2433,2.0,118.36898,2.272971623,-99999.0,'11133222,11111222,99999999' 
TABS,ioos:station:wmo:42050:1,2009-09-03T15:30:00Z,28.8425,-94.2433,2.0,131.5366589,2.458149711,-99999.0,'11133222,11111222,99999999' 
TABS,ioos:station:wmo:42050:1,2009-09-03T16:00:00Z,28.8425,-94.2433,2.0,123.2218975,3.394878496,-99999.0,'11133222,11111222,99999999' 
TABS,ioos:station:wmo:42050:1,2009-09-03T16:30:00Z,28.8425,-94.2433,2.0,122.0053084,1.41509717,-99999.0,'11133222,11111222,99999999' 
TABS,ioos:station:wmo:42050:1,2009-09-03T17:00:00Z,28.8425,-94.2433,2.0,99.41415249,1.95634864,-99999.0,'11133222,11111222,99999999' 
TABS,ioos:station:wmo:42050:1,2009-09-03T17:30:00Z,28.8425,-94.2433,2.0,75.78417977,2.321077336,-99999.0,'11133222,11111222,99999999' 
TABS,ioos:station:wmo:42050:1,2009-09-03T18:00:00Z,28.8425,-94.2433,2.0,45.00010523,1.004091629,-99999.0,'11133222,11111222,99999999' 
TABS,ioos:station:wmo:42050:1,2009-09-03T18:30:00Z,28.8425,-94.2433,2.0,346.3860595,2.634008352,-99999.0,'11133222,11111222,99999999' 
TABS,ioos:station:wmo:42050:1,2009-09-03T19:00:00Z,28.8425,-94.2433,2.0,322.6652584,4.188138011,-99999.0,'11133222,11111222,99999999' 
TABS,ioos:station:wmo:42050:1,2009-09-03T19:30:00Z,28.8425,-94.2433,2.0,336.5197243,5.069802758,-99999.0,'11133222,11111222,99999999' 
TABS,ioos:station:wmo:42050:1,2009-09-03T20:00:00Z,28.8425,-94.2433,2.0,302.3477888,6.391901126,-99999.0,'11133222,11111222,99999999' 
TABS,ioos:station:wmo:42050:1,2009-09-03T20:30:00Z,28.8425,-94.2433,2.0,309.3129545,5.208733051,-99999.0,'11133222,11111222,99999999' 
TABS,ioos:station:wmo:42050:1,2009-09-03T21:00:00Z,28.8425,-94.2433,2.0,294.0190418,7.247544412,-99999.0,'11133222,11111222,99999999' 
TABS,ioos:station:wmo:42050:1,2009-09-03T21:30:00Z,28.8425,-94.2433,2.0,301.6588876,7.354400044,-99999.0,'11133222,11111222,99999999' 
TABS,ioos:station:wmo:42050:1,2009-09-03T22:00:00Z,28.8425,-94.2433,2.0,298.8111473,9.814932501,-99999.0,'11133222,11111222,99999999' 
TABS,ioos:station:wmo:42050:1,2009-09-03T22:30:00Z,28.8425,-94.2433,2.0,291.973801,8.659012646,-99999.0,'11133222,11111222,99999999' 
TABS,ioos:station:wmo:42050:1,2009-09-03T23:00:00Z,28.8425,-94.2433,2.0,302.2595938,9.330192924,-99999.0,'11133222,11111222,99999999' 
TABS,ioos:station:wmo:42050:1,2009-09-03T23:30:00Z,28.8425,-94.2433,2.0,293.2476366,7.727386363,-99999.0,'11133222,11111222,99999999' 
TABS,ioos:station:wmo:42050:1,2009-09-04T00:00:00Z,28.8425,-94.2433,2.0,293.76639,8.883315822,-99999.0,'11133222,11111222,99999999' 
TABS,ioos:station:wmo:42050:1,2009-09-04T00:30:00Z,28.8425,-94.2433,2.0,291.3683682,8.837493989,-99999.0,'11133222,11111222,99999999' 
TABS,ioos:station:wmo:42050:1,2009-09-04T01:00:00Z,28.8425,-94.2433,2.0,271.1746009,9.271946937,-99999.0,'11133222,11111222,99999999' 
TABS,ioos:station:wmo:42050:1,2009-09-04T01:30:00Z,28.8425,-94.2433,2.0,298.5438653,7.513195059,-99999.0,'11133222,11111222,99999999' 
TABS,ioos:station:wmo:42050:1,2009-09-04T02:00:00Z,28.8425,-94.2433,2.0,286.5692114,7.574509885,-99999.0,'11133222,11111222,99999999' 
TABS,ioos:station:wmo:42050:1,2009-09-04T02:30:00Z,28.8425,-94.2433,2.0,284.0680523,8.845275575,-99999.0,'11133222,11111222,99999999' 
TABS,ioos:station:wmo:42050:1,2009-09-04T03:00:00Z,28.8425,-94.2433,2.0,304.8112225,7.514851961,-99999.0,'11133222,11111222,99999999' 
TABS,ioos:station:wmo:42050:1,2009-09-04T03:30:00Z,28.8425,-94.2433,2.0,276.0309931,6.948453065,-99999.0,'11133222,11111222,99999999' 
TABS,ioos:station:wmo:42050:1,2009-09-04T04:00:00Z,28.8425,-94.2433,2.0,287.4280796,8.814629884,-99999.0,'11133222,11111222,99999999' 
TABS,ioos:station:wmo:42050:1,2009-09-04T04:30:00Z,28.8425,-94.2433,2.0,272.980584,9.232486122,-99999.0,'11133222,11111222,99999999' 
TABS,ioos:station:wmo:42050:1,2009-09-04T05:00:00Z,28.8425,-94.2433,2.0,283.7307385,10.44858364,-99999.0,'11111222,11111222,99999999' 
TABS,ioos:station:wmo:42050:1,2009-09-04T05:30:00Z,28.8425,-94.2433,2.0,297.8806402,10.52123567,-99999.0,'11111222,11111222,99999999' 
TABS,ioos:station:wmo:42050:1,2009-09-04T06:00:00Z,28.8425,-94.2433,2.0,281.6011653,10.04519786,-99999.0,'11111222,11111222,99999999' 
TABS,ioos:station:wmo:42050:1,2009-09-04T06:30:00Z,28.8425,-94.2433,2.0,273.1941309,9.154217607,-99999.0,'11133222,11111222,99999999' 
TABS,ioos:station:wmo:42050:1,2009-09-04T07:00:00Z,28.8425,-94.2433,2.0,310.3523559,6.980888196,-99999.0,'11133222,11111222,99999999' 
TABS,ioos:station:wmo:42050:1,2009-09-04T07:30:00Z,28.8425,-94.2433,2.0,318.2669687,9.058614684,-99999.0,'11133222,11111222,99999999' 
TABS,ioos:station:wmo:42050:1,2009-09-04T08:00:00Z,28.8425,-94.2433,2.0,288.9730686,7.412705309,-99999.0,'11133222,11111222,99999999' 
TABS,ioos:station:wmo:42050:1,2009-09-04T08:30:00Z,28.8425,-94.2433,2.0,295.7462682,5.317913125,-99999.0,'11133222,11111222,99999999' 
TABS,ioos:station:wmo:42050:1,2009-09-04T09:00:00Z,28.8425,-94.2433,2.0,262.2400506,4.592047474,-99999.0,'11133222,11111222,99999999' 
TABS,ioos:station:wmo:42050:1,2009-09-04T09:30:00Z,28.8425,-94.2433,2.0,194.8932277,1.945353438,-99999.0,'11133222,11111222,99999999' 
TABS,ioos:station:wmo:42050:1,2009-09-04T10:00:00Z,28.8425,-94.2433,2.0,257.7276478,3.387403135,-99999.0,'11133222,11111222,99999999' 
TABS,ioos:station:wmo:42050:1,2009-09-04T10:30:00Z,28.8425,-94.2433,2.0,268.900224,4.69086346,-99999.0,'11133222,11111222,99999999' 
TABS,ioos:station:wmo:42050:1,2009-09-04T11:00:00Z,28.8425,-94.2433,2.0,231.0881982,5.333385416,-99999.0,'11133222,11111222,99999999' 
TABS,ioos:station:wmo:42050:1,2009-09-04T11:30:00Z,28.8425,-94.2433,2.0,284.9612712,3.757366099,-99999.0,'11133222,11111222,99999999' 
TABS,ioos:station:wmo:42050:1,2009-09-04T12:00:00Z,28.8425,-94.2433,2.0,328.979629,1.726991604,-99999.0,'11133222,11111222,99999999' 
TABS,ioos:station:wmo:42050:1,2009-09-04T12:30:00Z,28.8425,-94.2433,2.0,308.919589,4.138647122,-99999.0,'11133222,11111222,99999999' 
TABS,ioos:station:wmo:42050:1,2009-09-04T13:00:00Z,28.8425,-94.2433,2.0,0.549792121,4.170191842,-99999.0,'11133222,11111222,99999999' 
TABS,ioos:station:wmo:42050:1,2009-09-04T13:30:00Z,28.8425,-94.2433,2.0,348.967763,6.479753082,-99999.0,'11133222,11111222,99999999' 
TABS,ioos:station:wmo:42050:1,2009-09-04T14:00:00Z,28.8425,-94.2433,2.0,342.0904029,6.210974159,-99999.0,'11133222,11111222,99999999' 
TABS,ioos:station:wmo:42050:1,2009-09-04T14:30:00Z,28.8425,-94.2433,2.0,2.441569475,5.164687793,-99999.0,'11133222,11111222,99999999' 
TABS,ioos:station:wmo:42050:1,2009-09-04T15:00:00Z,28.8425,-94.2433,2.0,2.261768743,7.09552676,-99999.0,'11133222,11111222,99999999' 
TABS,ioos:station:wmo:42050:1,2009-09-04T15:30:00Z,28.8425,-94.2433,2.0,355.9274888,6.336000316,-99999.0,'11133222,11111222,99999999' 
TABS,ioos:station:wmo:42050:1,2009-09-04T16:00:00Z,28.8425,-94.2433,2.0,355.5796635,8.043929388,-99999.0,'11133222,11111222,99999999' 
TABS,ioos:station:wmo:42050:1,2009-09-04T16:30:00Z,28.8425,-94.2433,2.0,9.806280288,9.864116788,-99999.0,'11133222,11111222,99999999' 
TABS,ioos:station:wmo:42050:1,2009-09-04T17:00:00Z,28.8425,-94.2433,2.0,10.65355413,10.43994732,-99999.0,'11111222,11111222,99999999' 
TABS,ioos:station:wmo:42050:1,2009-09-04T17:30:00Z,28.8425,-94.2433,2.0,22.83381124,10.72007463,-99999.0,'11111222,11111222,99999999' 
TABS,ioos:station:wmo:42050:1,2009-09-04T18:00:00Z,28.8425,-94.2433,2.0,41.05492823,9.044114108,-99999.0,'11133222,11111222,99999999' 
TABS,ioos:station:wmo:42050:1,2009-09-04T18:30:00Z,28.8425,-94.2433,2.0,31.2549367,9.790980543,-99999.0,'11133222,11111222,99999999' 
TABS,ioos:station:wmo:42050:1,2009-09-04T19:00:00Z,28.8425,-94.2433,2.0,8.235810524,9.982950466,-99999.0,'11133222,11111222,99999999' 
TABS,ioos:station:wmo:42050:1,2009-09-04T19:30:00Z,28.8425,-94.2433,2.0,355.7399018,12.3842198,-99999.0,'11111222,11111222,99999999' 
TABS,ioos:station:wmo:42050:1,2009-09-04T20:00:00Z,28.8425,-94.2433,2.0,347.797435,12.96288934,-99999.0,'11111222,11111222,99999999' 
TABS,ioos:station:wmo:42050:1,2009-09-04T20:30:00Z,28.8425,-94.2433,2.0,346.4410646,11.94286816,-99999.0,'11111222,11111222,99999999' 
TABS,ioos:station:wmo:42050:1,2009-09-04T21:00:00Z,28.8425,-94.2433,2.0,321.6843921,13.79039158,-99999.0,'11111222,11111222,99999999' 